Back to catalog

GEISAT PRECURSOR

AliveScienceSSO
NORAD 56934·PAYLOAD·🇪🇸 Spain

Launched Jun 12, 2023 from Vandenberg Space Force Base

Loading…

Next Passes (next 24 hours)

TLE

FreshSource: Space-Track

Epoch: Sep 14, 2026, 15:29 UTC

1 56934U 23084C   26257.64533353  .00005887  00000-0  17174-3 0  9999
2 56934  97.6352  41.6850 0006000  38.3239 321.8429 15.35744620181252

Track GEISAT PRECURSOR in real time with AllMySat

Download on the App Store